Theta_e
313 318 320 318 321 324 326 328 328 326 322 318 317 319 321 321 321 322 323 325 326 327 329 328 327 328 327 325 328 331 333 333 333 336 342 341 337 338 339 339 341 340 341 337 334 334 333 332 326 322 324 325 326 330 332 333 333 333 334 336 335 334 335 334 335 335 334 333 332 331 331 330 330 331 332 334 334 331 332 334 333 333 332 331 331 331 332 332 331 331 330 330 329 329 330 330 331
313 318 321 321 324 325 328 328 325 322 319 315 316 319 321 321 321 320 322 325 325 327 329 328 326 326 325 325 325 328 333 335 336 339 340 337 337 338 338 340 340 341 341 337 335 335 333 331 324 322 323 324 326 329 331 332 333 334 334 335 335 334 335 334 335 335 334 333 331 330 329 329 329 330 332 332 333 333 333 334 333 332 331 331 332 332 332 332 331 331 331 330 329 329 330 330 330
312 316 321 325 325 325 327 325 322 318 316 313 315 320 322 321 321 322 323 324 325 328 330 327 326 324 324 325 325 327 334 336 335 336 336 337 337 337 339 340 339 341 340 338 338 337 333 329 324 322 322 324 325 327 331 332 333 333 334 335 334 334 335 335 336 335 334 333 331 330 329 330 330 331 332 330 330 332 333 334 333 332 331 332 332 332 332 332 332 331 331 331 330 330 329 329 330
313 316 323 327 328 327 326 325 323 318 316 313 315 321 321 323 325 325 325 325 327 330 329 327 326 327 327 325 325 330 335 336 336 336 336 337 336 337 338 338 339 341 340 340 340 338 333 328 324 322 322 325 326 328 330 331 332 332 333 335 333 333 335 335 336 336 334 333 331 330 330 330 330 332 332 331 331 332 333 334 334 333 332 333 333 332 332 332 331 331 331 331 330 330 330 329 330
316 319 324 326 330 329 325 326 324 320 317 315 315 320 322 325 327 326 326 327 329 330 327 326 326 326 328 327 329 332 335 337 336 335 336 336 336 337 338 338 339 340 340 340 341 338 332 328 324 322 322 324 326 327 328 329 330 331 332 334 334 333 334 335 335 335 334 333 332 330 330 329 329 330 331 332 332 331 332 333 333 333 333 332 332 332 332 332 331 331 331 330 330 330 330 330 329
319 321 323 324 327 325 325 323 321 320 318 318 317 319 324 325 326 326 327 326 327 328 326 328 325 324 328 329 332 334 335 337 336 336 338 336 336 337 338 338 339 339 339 340 341 337 331 328 324 323 323 324 326 326 326 327 327 328 331 333 333 332 333 334 335 334 334 333 332 331 329 328 329 330 331 332 333 332 332 332 332 333 333 332 331 331 331 332 331 331 330 330 330 330 330 329 329
321 325 325 325 325 323 325 322 320 321 318 320 319 319 324 324 325 325 325 324 324 324 325 327 323 326 329 329 333 334 337 338 337 339 338 336 337 338 337 338 338 339 339 340 340 336 331 328 325 323 323 324 325 326 327 327 326 326 328 332 332 332 333 333 333 332 331 332 331 330 329 328 329 330 331 332 332 333 333 333 333 332 331 331 331 331 331 331 331 330 329 329 329 330 329 328 328
321 327 327 326 326 323 324 322 322 321 317 318 320 320 324 324 324 324 324 324 323 323 324 325 323 325 326 328 334 334 339 340 339 339 337 338 338 338 338 338 338 338 339 340 340 335 331 329 326 324 323 323 324 326 327 326 326 324 326 329 329 330 331 331 329 327 327 330 331 330 329 328 328 330 330 331 331 332 332 332 332 331 330 330 331 331 331 331 330 330 329 329 329 329 328 328 328
321 326 327 325 325 324 322 321 322 320 317 317 319 322 324 323 323 323 323 323 322 324 324 324 323 324 324 330 334 334 338 340 338 337 337 338 338 338 337 337 338 338 339 341 339 334 332 330 328 326 324 324 323 325 326 326 325 325 326 326 325 326 328 328 325 324 324 327 330 329 329 328 328 329 329 330 331 332 331 330 330 330 330 330 330 331 331 330 330 330 329 329 329 328 327 327 327
323 325 326 325 323 322 320 320 322 319 317 317 317 320 323 322 322 322 322 322 322 323 323 323 322 322 324 331 334 335 337 339 338 337 338 338 338 338 337 337 338 338 339 340 338 334 332 331 329 327 326 325 323 324 325 325 325 325 325 324 323 322 322 322 321 322 322 324 329 329 328 328 328 329 329 330 330 331 330 329 330 329 330 330 330 330 330 330 330 329 329 328 328 327 326 326 326
325 323 324 325 320 318 319 319 321 320 317 317 317 319 321 322 322 321 321 321 320 323 323 322 322 321 325 333 336 336 336 338 338 337 338 337 338 338 337 337 337 338 339 340 339 335 333 332 330 329 327 326 324 323 325 325 325 325 325 326 324 321 319 318 317 319 319 322 328 329 328 328 328 328 328 330 329 330 330 329 329 329 329 329 329 329 329 329 329 329 328 328 328 327 326 326 326
328 324 325 325 320 320 321 320 320 319 318 317 317 318 320 322 322 322 321 320 321 323 323 322 322 319 322 333 337 335 335 337 338 337 337 337 338 337 336 337 337 338 340 340 340 337 333 332 332 330 329 328 325 324 325 325 325 325 325 326 325 324 322 319 317 318 318 322 328 329 328 328 328 327 327 329 329 329 329 329 329 329 329 328 329 329 329 329 329 328 328 328 327 326 326 326 326
328 327 324 322 322 323 322 321 321 321 320 318 317 318 319 321 322 322 320 320 321 322 322 321 321 319 325 333 336 334 335 337 338 337 336 337 337 337 336 337 337 338 339 340 340 338 335 333 332 331 330 329 328 326 325 326 326 325 326 326 326 325 324 322 318 318 317 320 326 327 327 328 327 326 326 328 328 328 328 328 329 329 328 328 328 329 328 328 328 328 328 328 327 326 326 326 326
328 328 325 323 323 323 323 321 320 320 319 318 318 318 320 320 321 321 320 319 320 321 321 320 319 318 325 333 335 335 336 337 338 337 336 337 337 337 336 337 337 338 339 340 340 339 336 335 334 332 331 330 331 329 326 326 326 326 325 326 326 325 326 324 320 318 317 317 320 324 325 326 326 324 325 327 327 327 327 327 327 327 326 326 327 327 328 328 328 327 327 327 326 326 326 326 326
326 328 327 325 323 322 324 323 322 319 318 319 318 318 320 319 320 320 319 318 319 320 320 320 319 319 326 332 334 335 336 337 338 337 336 336 336 336 336 337 338 338 338 339 340 340 339 337 337 334 331 331 332 331 330 327 327 327 326 326 326 326 326 325 322 319 318 317 317 321 324 325 325 324 325 326 326 326 326 326 326 326 325 326 327 326 327 327 327 327 327 327 326 326 326 326 326
324 326 327 326 322 322 323 323 323 319 318 319 317 319 320 318 319 318 316 317 318 319 319 320 318 323 334 335 333 335 337 337 337 337 336 336 335 335 336 337 337 338 338 338 339 340 340 339 339 337 333 334 334 333 332 329 327 328 327 326 326 326 326 326 325 320 319 318 316 319 323 325 325 325 326 326 325 324 324 324 324 324 324 325 326 326 326 326 326 327 327 326 325 326 326 326 326
323 323 326 324 322 322 322 323 321 318 318 318 317 319 319 318 317 316 315 316 318 318 318 320 320 327 337 338 335 337 337 337 337 337 336 335 335 335 336 337 337 338 338 338 339 339 339 339 339 338 336 336 337 335 335 331 329 329 328 327 326 327 326 326 326 322 320 318 316 317 322 325 324 325 326 326 325 324 322 322 323 322 322 322 323 324 324 325 325 325 325 325 325 326 326 326 326
323 324 324 322 322 322 321 322 320 320 319 318 318 319 319 318 317 316 315 316 317 317 318 320 324 328 334 337 337 338 336 337 337 336 336 335 335 335 336 336 337 338 338 338 338 339 339 339 339 339 337 338 338 337 337 335 331 329 329 328 327 327 327 326 326 325 321 318 319 320 323 325 325 327 326 324 325 324 322 321 322 322 321 319 319 320 321 322 322 323 324 325 325 325 325 325 325
323 325 323 321 323 322 318 319 318 319 319 317 318 319 318 318 317 316 316 317 316 317 317 319 324 325 331 338 337 337 336 337 337 336 336 335 335 335 335 336 336 337 338 338 338 339 338 339 339 339 338 338 338 338 337 337 334 331 330 329 327 327 327 327 327 327 324 321 324 326 326 326 326 328 326 324 324 324 323 321 321 322 321 319 317 317 318 319 319 322 325 324 324 324 324 324 324
321 322 322 322 322 320 316 316 317 317 318 317 318 318 318 317 316 316 316 317 316 317 316 317 323 324 329 337 337 336 336 337 337 336 335 336 335 335 336 336 336 336 337 337 337 338 338 338 338 338 339 339 338 338 338 337 336 333 333 332 329 329 327 328 329 328 328 325 326 328 327 327 327 327 325 325 325 323 323 321 321 321 320 321 319 317 316 318 319 322 324 323 324 324 325 324 323
320 320 321 321 319 319 316 315 316 317 318 317 318 318 318 317 316 316 316 317 315 315 316 315 319 323 327 334 336 335 335 336 336 336 336 336 336 335 336 336 336 336 336 337 337 337 338 338 337 338 339 339 339 338 338 337 336 335 335 334 333 331 328 330 330 329 330 328 327 328 327 327 327 327 325 324 324 323 322 321 321 321 321 321 320 317 315 317 319 320 321 321 322 324 325 325 323
319 319 319 319 318 317 315 314 316 317 317 317 318 318 317 317 315 316 315 316 316 315 317 316 316 323 327 331 334 333 334 335 335 336 335 335 336 336 336 336 336 335 336 336 337 337 337 337 338 338 338 338 339 338 338 337 336 336 336 335 334 333 330 330 331 329 330 328 327 328 328 326 326 327 323 321 324 325 323 322 322 323 323 321 321 321 317 316 318 317 318 320 322 322 323 324 323
318 319 318 317 317 316 314 314 315 316 317 317 318 317 316 316 315 315 315 315 316 316 318 320 320 323 326 329 331 332 333 334 335 336 336 336 336 337 337 336 336 335 336 336 336 336 336 337 337 338 338 338 338 338 337 337 337 336 336 336 334 333 332 331 330 329 330 329 327 329 328 325 325 325 320 319 325 326 324 324 324 325 324 323 322 322 319 315 317 318 318 321 322 322 322 323 323
316 318 318 316 315 315 313 313 314 315 316 317 317 316 316 315 315 315 315 314 316 318 319 321 324 323 326 330 330 332 334 334 335 336 336 336 336 337 337 337 337 336 336 336 336 336 336 337 337 338 338 338 338 337 337 337 337 336 336 336 335 334 332 331 330 329 330 328 328 329 328 326 325 326 323 322 326 326 325 325 325 325 325 324 323 323 321 316 318 321 321 322 322 320 320 320 321
316 317 317 315 314 313 313 312 313 314 314 316 316 316 315 315 314 315 315 315 318 321 320 320 324 325 327 330 331 332 334 334 335 336 336 337 336 337 337 337 337 337 336 336 335 336 335 336 337 337 338 338 338 337 337 337 336 336 336 336 335 334 333 332 331 329 330 329 328 328 328 327 326 326 325 325 326 325 325 325 325 325 324 324 324 323 321 317 318 321 322 322 320 318 318 317 317
316 316 316 314 314 313 313 313 313 313 313 314 315 315 315 314 314 316 315 316 319 322 321 321 324 326 327 328 330 332 332 334 334 336 336 336 337 336 337 337 337 337 336 336 335 335 335 336 337 337 337 338 337 337 337 337 336 336 336 336 335 335 333 332 332 330 330 329 328 328 328 328 328 327 326 325 324 324 325 325 324 324 323 323 323 322 320 318 318 320 321 320 319 319 320 318 318
316 315 315 314 314 313 313 314 313 313 313 313 314 315 315 314 314 315 315 317 319 321 321 320 322 324 325 326 328 329 330 332 333 334 335 335 336 336 336 336 336 337 336 335 335 335 335 335 336 337 337 337 338 337 336 337 337 336 336 336 335 335 334 332 332 331 330 329 328 328 328 327 328 328 327 326 325 323 323 324 322 322 322 321 321 321 320 319 319 320 320 320 320 321 321 320 320
316 314 315 314 313 314 313 314 313 314 313 313 315 315 314 313 314 315 315 316 317 318 319 319 320 322 323 325 327 327 328 330 331 333 334 334 336 336 336 336 337 337 336 335 335 335 335 334 335 336 337 337 337 337 336 337 337 336 336 336 336 335 334 333 332 332 331 330 329 328 328 327 328 328 328 327 326 324 323 323 322 320 319 319 319 319 319 319 319 321 321 321 321 321 320 321 320
315 315 316 314 313 314 313 313 313 314 314 313 314 315 315 315 315 315 315 315 315 316 317 318 318 320 323 325 327 328 327 329 331 332 333 334 335 336 337 337 337 337 336 335 335 335 335 334 334 335 336 336 337 337 337 337 336 336 336 336 336 335 334 333 333 333 332 330 330 329 329 328 327 328 328 327 327 325 324 324 323 321 320 319 318 318 318 318 319 320 321 320 320 321 321 321 321
315 314 316 315 315 314 314 314 314 314 315 314 314 315 316 316 315 315 315 315 315 315 315 317 318 318 320 324 328 330 328 327 330 332 332 334 335 336 336 337 337 336 335 334 335 335 335 335 334 334 335 335 335 336 336 336 335 335 335 335 336 335 334 334 333 333 332 331 331 330 329 328 328 328 327 327 327 326 325 324 325 324 323 321 320 319 318 318 318 319 320 320 320 320 319 320 320
314 314 315 318 317 314 315 314 314 315 314 313 314 315 317 316 315 315 315 314 314 314 315 317 317 316 318 323 328 331 329 327 330 332 332 334 334 335 335 336 336 335 334 334 335 335 334 335 334 334 334 334 335 334 335 335 334 334 334 335 335 335 334 334 333 332 333 332 331 331 329 328 328 328 328 328 327 327 326 325 326 325 324 323 321 321 320 319 318 317 318 319 319 318 318 318 319
314 314 315 318 317 315 316 314 314 315 314 313 313 314 315 315 315 314 315 314 314 314 315 316 317 317 317 322 326 328 328 327 329 332 332 333 333 333 333 334 335 334 334 334 335 335 335 335 334 334 334 334 334 334 334 334 334 334 334 335 335 335 334 334 333 332 333 332 331 331 330 328 328 328 328 328 328 327 326 326 325 325 324 324 323 322 321 320 318 317 318 318 318 318 318 318 318
314 315 315 317 316 315 316 313 315 315 314 312 313 315 316 315 314 314 314 314 314 315 315 315 316 317 318 321 323 324 326 327 328 329 330 331 331 332 332 332 333 334 333 333 335 335 335 335 334 334 334 334 334 334 334 333 333 333 333 334 334 335 335 335 334 333 333 332 331 331 330 329 328 328 329 328 328 327 327 326 325 325 324 324 323 322 322 321 320 319 318 317 318 319 318 318 318
315 315 315 316 314 315 316 314 315 316 314 313 312 314 316 315 314 313 314 314 315 315 315 315 316 317 319 320 320 320 322 326 328 327 327 329 330 331 331 331 331 333 333 332 334 334 335 335 334 334 333 333 334 334 333 332 333 333 333 333 334 334 335 335 335 334 333 332 332 332 331 330 329 329 330 329 328 327 327 326 325 325 324 324 323 323 322 322 321 320 318 317 318 319 318 318 318
314 316 314 315 314 314 316 316 315 316 315 314 314 313 314 315 315 313 313 314 314 315 315 315 316 317 318 319 319 319 319 321 323 324 326 327 329 330 330 330 330 331 332 332 333 334 334 334 334 333 333 332 333 334 333 332 332 332 332 333 333 334 334 335 335 334 333 332 333 332 331 330 328 329 331 330 329 328 327 326 326 325 324 323 323 322 322 322 321 320 319 318 318 318 318 318 318
314 316 314 315 316 314 315 316 315 315 315 315 315 313 313 313 315 314 313 314 314 314 315 315 316 317 317 319 319 319 320 319 319 321 324 325 327 329 330 330 330 330 331 332 333 333 333 334 334 333 332 332 332 333 334 332 332 332 332 331 331 332 333 334 334 334 334 332 331 331 331 329 328 328 330 330 329 328 327 327 326 325 324 324 323 322 322 322 321 321 320 319 318 318 318 317 317
314 316 313 314 317 315 315 316 314 315 315 315 316 315 315 314 315 316 314 313 315 314 314 316 318 318 318 319 320 321 322 319 316 317 321 323 325 327 329 329 329 330 331 331 332 332 332 333 333 332 331 332 332 332 333 332 332 332 331 331 331 331 332 332 332 332 332 331 330 331 330 330 329 330 331 331 330 329 329 327 327 326 324 324 324 323 323 321 321 320 320 319 318 318 318 317 317
314 316 314 315 317 316 315 315 313 314 315 315 316 315 315 315 315 316 315 313 314 315 315 316 317 318 319 320 321 322 321 321 323 320 319 321 324 325 327 328 328 329 331 331 331 331 331 331 332 332 331 331 332 331 333 333 332 332 331 331 331 332 332 332 332 331 331 331 331 332 332 331 331 331 331 331 330 330 330 329 328 327 326 325 324 324 323 321 321 320 319 319 318 317 317 317 316
315 316 316 316 318 316 315 315 314 313 314 315 317 317 315 316 316 316 316 314 314 315 315 316 317 316 318 319 320 322 320 325 332 325 319 319 321 324 325 326 326 326 328 329 329 330 330 330 330 331 330 330 331 331 332 332 331 331 331 331 331 332 331 331 331 331 331 331 330 331 330 330 330 331 331 331 330 329 328 328 328 328 328 327 325 324 324 322 321 319 318 318 318 317 316 316 316
317 317 315 317 320 317 315 316 315 313 313 315 318 318 318 316 317 317 317 316 315 316 316 317 318 318 318 318 320 321 320 326 331 326 320 317 318 321 322 324 325 325 326 327 328 329 329 330 329 329 330 329 329 330 331 331 331 331 331 331 331 331 330 329 329 329 330 331 330 330 329 328 329 330 330 329 328 328 328 328 328 328 328 328 327 326 325 323 322 320 319 319 318 316 316 316 316
318 319 317 319 321 318 318 317 314 313 315 316 315 315 317 315 315 316 316 317 317 316 317 317 319 321 321 323 325 325 322 324 327 326 322 316 315 317 317 320 322 324 325 325 325 326 328 329 329 329 329 329 329 329 331 331 331 331 330 330 330 329 329 329 329 329 329 330 330 330 330 329 328 329 328 328 329 330 329 329 328 328 328 328 328 326 325 324 323 322 321 320 319 317 316 315 315
315 320 320 320 320 320 321 318 315 315 318 319 315 314 318 318 315 315 314 316 316 316 318 316 318 324 326 327 328 330 329 327 327 326 322 316 314 315 315 315 317 319 322 323 323 324 326 327 328 329 329 329 328 328 329 330 330 330 330 330 329 328 328 329 329 329 329 329 329 330 330 329 329 328 328 328 328 328 328 328 327 328 327 327 326 324 324 324 324 323 322 320 319 318 317 315 314
312 320 324 321 323 324 323 321 319 317 318 319 317 316 319 318 315 317 317 317 318 317 319 319 319 323 325 324 324 326 328 328 328 326 323 318 315 314 315 314 314 314 316 318 321 323 324 326 327 328 329 328 328 327 327 328 329 329 329 330 329 328 327 327 328 328 327 327 327 328 329 329 328 328 327 327 326 326 326 327 326 326 326 325 324 323 324 324 324 323 322 320 319 319 317 315 314
315 325 328 323 325 327 326 324 320 319 319 318 317 317 318 318 318 318 320 319 319 318 319 321 320 319 320 321 321 321 322 325 327 328 325 319 315 314 314 314 313 313 313 314 318 321 323 324 326 327 328 328 327 327 327 327 327 327 328 328 327 327 327 326 326 326 326 326 326 327 327 327 326 326 326 326 326 326 326 326 326 325 325 324 324 324 324 324 323 323 322 321 321 320 319 317 316
322 327 327 324 326 328 326 324 321 318 319 319 320 318 317 320 319 318 321 317 317 318 318 319 319 317 317 318 320 321 322 324 326 329 326 318 315 315 314 314 313 313 313 313 315 319 322 323 325 326 327 327 327 327 326 326 326 326 326 325 325 326 325 325 325 325 324 324 324 325 325 325 325 325 325 326 326 326 325 324 324 324 323 323 323 323 322 322 322 322 321 321 321 319 318 317 315
323 324 325 325 327 326 323 323 321 318 319 321 323 319 317 320 319 316 318 317 318 319 316 317 319 318 318 320 323 323 323 325 325 325 321 315 314 315 314 314 313 313 313 313 314 317 321 322 324 326 326 327 326 326 326 326 326 325 325 324 323 324 325 324 324 325 324 324 324 324 325 325 325 324 324 323 322 322 323 323 324 323 322 321 321 321 321 321 321 321 320 319 319 317 316 315 315
323 324 324 323 322 322 321 321 319 318 321 323 323 320 316 319 320 316 317 318 319 319 315 319 322 321 323 325 326 324 324 327 326 322 316 314 315 314 314 314 313 313 314 314 315 316 318 320 323 325 325 325 325 325 325 325 325 324 324 322 322 323 324 324 324 324 324 324 323 324 324 323 323 322 321 321 320 319 319 321 322 322 321 320 319 319 320 320 319 318 318 317 316 316 316 315 314
324 325 323 321 319 319 318 318 317 320 323 320 320 322 319 319 318 315 317 318 317 317 316 321 324 323 326 327 325 322 322 324 326 323 318 317 316 314 314 315 314 315 315 315 315 315 317 320 322 323 324 324 324 324 324 324 323 323 322 322 323 323 323 324 324 323 323 323 323 322 322 321 321 320 320 320 320 319 319 318 318 318 318 318 317 317 317 316 315 315 314 314 314 314 315 314 313
324 322 319 320 320 319 319 320 320 321 321 316 314 319 321 320 316 314 317 315 315 317 316 320 323 323 326 326 324 323 322 321 323 324 323 322 317 313 313 316 316 316 316 316 316 316 318 321 321 322 323 323 323 323 323 322 321 322 322 322 323 323 323 323 322 322 322 321 321 321 321 321 321 321 320 320 319 319 318 318 317 316 316 317 316 316 315 314 313 312 312 312 312 312 313 313 312
320 319 319 321 321 318 319 320 321 320 318 315 314 317 320 319 316 316 316 313 316 318 317 322 322 322 326 326 323 324 323 321 322 325 327 325 317 312 313 316 315 315 316 318 318 318 319 320 321 322 322 322 322 321 321 320 319 321 322 322 322 323 323 322 321 321 321 321 321 320 320 321 321 321 320 319 319 318 317 317 317 316 316 316 316 315 314 314 313 312 312 311 311 311 310 310 310
320 322 320 321 321 320 319 320 323 324 319 314 314 318 321 320 317 318 317 316 318 318 320 323 322 321 324 323 320 321 321 323 324 326 327 324 316 313 315 316 315 315 317 318 318 319 319 319 320 321 321 321 320 319 319 318 319 321 322 322 322 323 323 322 321 321 321 322 322 321 321 321 320 320 319 318 318 318 317 317 316 316 315 315 315 314 314 314 313 313 312 311 311 310 309 309 309
320 324 322 321 322 324 323 319 321 325 322 318 317 321 323 320 318 318 317 320 320 318 320 320 320 321 321 321 321 321 321 324 326 326 327 323 317 316 317 317 316 316 317 318 318 318 319 319 320 320 320 320 319 318 318 318 319 320 322 322 322 322 322 322 322 321 322 322 321 321 320 320 319 319 318 318 317 317 316 316 315 314 314 314 314 314 313 313 313 312 312 312 311 311 310 310 309
318 321 321 319 322 327 324 317 316 317 319 321 320 320 319 315 316 318 316 319 319 319 321 319 318 319 320 323 324 323 324 327 328 327 327 323 318 318 319 318 318 318 318 318 318 319 319 319 320 320 319 319 318 318 319 319 319 320 321 321 321 321 321 321 321 321 320 320 320 319 318 318 317 317 316 316 315 315 314 313 313 312 313 313 313 313 313 312 312 312 312 311 311 311 310 310 309
319 320 320 317 319 324 320 316 317 316 315 318 319 318 316 313 317 321 315 316 318 319 320 318 317 318 320 324 325 325 328 329 328 327 326 321 317 317 319 319 319 318 318 318 318 319 319 320 320 319 319 319 319 319 320 320 320 320 320 321 321 321 320 319 319 319 318 318 317 316 315 314 314 314 314 313 313 313 312 311 311 311 311 312 312 312 311 311 311 311 311 311 310 310 310 309 309
318 319 320 318 319 321 317 314 319 320 315 316 319 318 316 315 316 317 315 317 319 318 319 318 318 320 322 323 324 326 328 328 326 326 326 321 316 316 318 318 318 318 318 318 318 319 320 320 320 319 319 319 319 320 320 320 320 320 320 320 320 320 319 318 317 317 316 315 313 313 312 312 312 312 312 312 311 311 310 310 310 310 310 310 310 310 310 310 310 310 310 310 309 309 309 308 308
316 317 317 317 318 320 320 316 318 321 318 316 319 318 321 323 318 314 316 318 317 316 318 320 318 320 321 322 324 328 328 327 326 325 326 322 316 315 316 316 317 318 318 318 319 319 320 320 320 319 319 319 319 320 320 319 319 319 319 319 318 318 317 316 315 314 313 313 312 312 311 311 311 311 311 310 310 310 309 309 309 308 308 308 308 308 308 309 308 308 308 308 308 308 308 307 306
315 316 315 315 316 317 320 319 318 320 318 317 317 316 321 325 319 315 315 314 318 319 321 324 321 320 321 322 326 329 326 325 325 324 325 321 314 313 315 315 315 316 316 317 318 318 319 319 319 318 318 318 318 318 318 318 318 318 317 317 316 316 315 314 313 312 312 311 311 311 311 311 310 310 310 310 309 309 309 308 307 307 306 306 306 306 306 306 306 306 306 306 306 306 305 305 304
316 315 314 315 316 316 318 319 319 317 317 319 317 316 323 323 316 316 315 315 323 324 322 325 322 320 324 326 328 328 324 324 324 323 325 320 313 312 313 313 313 313 314 315 316 316 317 318 318 317 317 318 317 317 317 317 317 316 316 315 315 314 313 313 312 311 311 310 310 310 310 310 309 309 309 309 308 308 307 307 307 306 306 305 305 304 304 304 304 304 304 304 304 304 304 304 304
Wind_Speed
8 8 9 8 7 9 7 3 1 2 2 4 3 3 2 5 6 6 6 5 4 3 4 6 7 4 2 5 9 10 9 7 3 1 2 8 16 14 15 19 19 19 17 16 16 14 12 11 11 11 12 14 15 16 15 14 14 15 14 12 11 12 14 16 17 17 17 17 17 17 17 17 17 17 17 17 18 19 18 18 18 18 19 19 19 19 19 19 20 19 19 19 19 19 18 17 17
7 7 7 8 7 6 3 2 2 3 3 4 0 5 4 4 5 6 6 5 6 3 4 6 5 4 3 4 6 8 10 9 7 5 7 15 16 14 17 18 18 18 17 17 16 14 12 11 11 11 12 14 15 15 15 14 14 13 13 12 11 12 14 16 17 16 16 16 17 16 16 16 17 17 14 15 17 17 17 16 16 18 19 19 18 19 19 18 18 18 18 18 18 18 18 17 17
7 6 5 7 6 4 3 1 2 3 3 3 3 5 5 4 5 8 7 8 8 5 6 5 4 3 2 3 4 6 7 8 10 8 8 16 13 14 19 17 18 17 17 17 15 13 12 12 11 12 12 13 14 15 15 14 13 12 13 12 11 13 14 16 17 16 16 16 16 17 16 16 16 16 14 13 14 15 16 16 16 18 19 18 18 18 18 18 18 17 17 17 17 17 17 17 18
7 4 5 7 3 3 2 1 3 4 4 1 4 4 6 6 8 10 9 9 7 5 5 3 3 2 3 4 5 6 7 6 11 10 8 14 14 18 20 18 18 17 17 17 15 13 12 12 11 12 11 12 14 13 14 13 12 12 13 12 11 13 14 15 16 16 16 16 16 16 16 16 15 16 15 14 13 13 15 16 17 18 18 17 17 17 16 17 17 17 17 17 16 17 17 17 18
5 3 5 6 2 1 1 2 3 3 3 1 3 4 7 10 10 10 8 7 6 5 4 3 2 1 2 4 2 3 5 6 11 12 11 16 20 21 21 19 18 17 17 16 15 13 13 12 11 12 11 12 13 13 13 13 12 12 13 12 11 13 14 14 16 16 15 15 15 16 16 15 15 15 15 15 14 14 14 16 17 17 17 17 16 16 16 16 16 16 16 16 16 16 16 17 19
5 4 5 4 2 1 1 2 4 3 3 3 4 4 8 11 10 11 8 6 4 3 2 1 2 3 3 4 5 4 2 6 11 12 15 22 24 22 22 20 18 17 17 17 14 13 14 12 11 12 11 11 12 13 13 12 13 12 13 13 11 12 14 14 15 15 15 15 15 15 15 15 14 15 15 14 14 15 15 16 17 17 17 16 15 15 15 15 15 15 15 15 15 16 16 17 19
5 4 3 3 2 1 1 4 5 2 3 4 4 5 9 11 9 11 9 5 3 2 2 2 3 5 4 3 5 6 8 8 12 14 19 24 25 23 23 19 18 17 17 17 12 13 14 12 12 11 11 10 11 12 12 12 12 12 13 13 12 11 13 13 13 12 12 13 14 14 14 14 14 15 15 14 14 15 15 15 15 15 15 15 15 14 14 14 14 14 14 14 15 15 14 16 18
4 2 1 1 2 1 2 5 5 1 1 4 4 4 11 11 8 10 8 6 2 2 1 2 1 2 2 3 3 5 11 14 16 20 23 24 25 24 21 19 19 17 17 16 12 14 14 12 12 11 11 10 10 11 11 12 12 12 12 11 11 11 11 10 9 9 10 12 13 13 14 14 14 13 14 14 15 14 14 14 13 14 14 14 14 14 13 13 13 13 13 13 13 13 14 16 16
4 2 0 1 2 2 3 5 4 2 3 3 4 5 11 10 7 9 8 7 4 4 5 3 0 1 4 5 5 5 8 14 20 23 24 23 24 22 20 19 19 18 17 16 13 15 14 12 12 11 10 9 9 9 10 11 11 12 11 10 10 10 9 8 7 7 9 12 12 12 13 13 13 13 13 14 14 13 12 12 12 13 13 13 13 12 12 12 12 12 12 12 12 12 14 15 15
4 3 0 1 3 3 4 5 4 3 5 5 4 6 10 7 6 8 7 7 6 5 6 4 1 2 6 7 4 5 9 15 21 21 22 23 22 20 19 19 19 18 17 15 14 16 14 12 12 10 10 9 9 9 9 10 10 11 10 9 9 9 8 7 6 6 8 11 13 12 13 12 11 12 13 13 12 12 12 12 12 12 12 12 11 11 11 11 11 11 10 11 11 12 14 15 14
2 3 0 1 3 4 4 5 4 5 6 5 5 5 6 5 6 6 6 7 6 6 5 4 2 3 5 6 1 7 14 16 19 22 22 22 20 18 19 19 18 18 15 14 14 14 15 13 12 11 9 9 9 9 9 9 9 10 10 10 9 9 8 7 6 6 7 12 15 13 12 11 10 11 12 13 12 12 11 11 11 11 11 11 11 11 10 10 10 10 9 10 10 12 14 14 13
1 3 2 2 4 4 4 5 3 6 6 5 4 3 3 4 5 6 7 7 6 7 4 3 1 3 4 5 1 9 15 15 18 22 21 21 19 17 19 19 18 17 16 15 13 13 15 14 12 11 10 9 9 9 8 8 8 9 9 9 9 9 8 8 7 7 9 14 16 12 12 11 10 10 11 13 13 12 10 10 11 10 10 10 10 10 10 10 9 9 9 9 10 12 13 13 12
2 3 3 3 4 4 5 3 3 6 4 4 5 4 3 4 4 5 7 6 7 6 5 5 1 1 3 5 4 8 12 15 19 21 21 20 18 17 18 19 18 17 17 16 13 12 14 14 13 12 10 9 9 9 8 7 7 8 8 8 8 8 8 8 7 8 9 14 15 13 12 11 10 10 11 11 11 11 9 9 11 10 9 9 10 9 9 9 9 9 8 8 9 11 12 12 11
1 2 2 3 4 5 5 1 4 5 3 4 6 6 5 3 4 3 6 6 5 3 3 4 1 1 2 4 4 4 10 18 21 21 21 18 18 17 17 18 17 16 16 16 14 12 13 13 13 13 12 10 9 9 7 7 7 7 8 7 7 7 7 7 7 8 9 11 12 13 12 10 10 11 11 10 9 9 8 8 8 8 8 9 9 9 8 8 8 8 7 6 8 11 11 11 10
1 3 1 2 4 5 4 1 3 4 3 5 7 7 6 2 1 3 4 3 3 1 4 6 3 2 1 1 4 6 15 22 22 21 19 17 18 17 17 18 16 15 16 15 14 13 13 12 12 12 13 11 10 10 8 7 7 7 7 6 6 6 6 7 7 7 8 9 10 12 12 10 9 10 10 9 7 7 7 7 6 7 8 9 9 8 8 8 8 7 6 6 8 10 10 10 9
1 2 1 2 3 4 2 1 2 4 3 5 7 8 7 2 2 3 1 1 4 0 2 4 3 3 3 4 8 16 22 24 23 21 19 18 17 16 17 18 15 15 16 15 14 15 15 15 13 11 12 12 10 9 8 8 8 7 7 6 6 6 6 6 6 7 7 8 8 10 11 10 9 8 8 7 6 5 5 5 5 6 7 8 8 8 7 7 7 7 6 6 8 9 9 8 8
0 1 1 3 3 3 2 3 2 3 4 5 8 8 8 4 2 2 2 1 5 2 2 5 5 6 5 8 17 25 25 24 23 22 20 18 17 16 16 17 16 15 16 15 15 15 15 16 15 11 13 12 10 10 8 8 9 8 7 7 6 6 5 5 6 6 7 8 8 9 10 9 7 5 6 6 6 4 4 4 5 6 6 6 7 8 7 7 6 6 6 8 9 8 8 7 6
1 1 2 3 4 4 2 4 4 6 6 6 9 8 8 8 4 3 3 2 5 5 4 7 9 8 7 12 21 25 25 24 23 22 19 18 17 16 15 17 18 17 17 16 15 16 15 15 15 12 14 14 12 13 10 8 10 9 8 7 7 7 6 5 4 6 6 8 9 9 8 6 6 4 3 5 5 5 4 3 3 4 4 4 5 6 7 7 6 7 8 8 9 8 7 5 5
2 2 3 4 5 2 2 2 2 5 8 8 8 8 7 9 7 4 4 5 6 5 5 6 8 7 6 12 20 22 23 23 22 21 19 18 18 17 17 17 18 18 18 18 17 17 16 16 15 12 14 15 13 14 12 9 10 9 8 8 8 8 7 6 4 5 6 8 10 9 7 4 5 6 4 4 4 5 5 3 3 2 3 3 3 3 5 6 6 7 8 8 9 7 6 4 3
3 3 3 5 5 1 4 5 4 4 10 10 8 7 6 9 8 4 5 6 7 6 6 7 7 8 7 9 17 20 20 21 21 21 20 18 17 18 18 18 19 20 20 20 19 18 17 17 16 14 14 16 15 15 12 9 10 9 8 7 7 8 8 7 5 5 5 5 8 8 6 6 7 8 6 6 5 3 5 4 3 2 1 2 1 2 4 5 5 6 7 8 8 7 5 3 1
2 3 3 3 4 1 4 5 5 5 8 9 8 7 4 8 7 4 6 6 6 7 7 9 9 12 12 9 14 18 18 19 20 20 20 19 18 18 18 19 19 19 20 20 19 19 19 17 17 16 14 16 16 15 13 9 10 12 11 8 7 7 8 10 8 7 7 5 8 6 7 10 9 9 8 8 6 3 4 4 4 2 1 2 2 2 4 6 6 6 7 7 7 5 5 2 2
1 4 4 2 4 2 4 5 5 5 5 8 7 8 5 6 5 6 8 5 4 3 4 9 10 13 15 14 14 16 15 17 19 19 20 20 19 19 18 19 19 19 20 20 20 20 20 18 18 18 16 17 17 16 14 10 11 14 15 11 10 9 8 11 10 10 10 8 10 7 8 10 9 8 9 9 6 5 4 2 3 2 1 1 3 2 2 7 7 7 8 6 5 3 4 5 4
1 5 4 2 4 3 3 4 5 6 5 9 7 6 6 6 4 6 7 4 4 2 2 2 6 16 21 19 16 13 13 15 18 20 21 21 21 20 19 19 20 20 20 21 20 19 20 19 19 19 18 18 18 16 14 13 13 14 15 13 13 13 11 12 11 10 10 9 10 7 7 8 8 7 8 9 9 8 6 1 2 3 4 1 3 3 2 5 6 6 7 4 3 5 8 9 8
4 5 2 2 5 4 3 3 5 7 3 5 6 7 6 7 5 6 7 4 6 4 4 6 10 19 21 17 14 14 15 17 19 21 21 22 22 21 19 19 20 21 21 21 21 20 21 20 20 20 19 19 19 18 16 15 15 14 15 14 14 15 14 12 11 11 10 9 10 9 7 7 8 7 7 8 10 11 8 5 5 8 7 3 4 7 5 5 6 6 6 6 8 10 10 10 11
6 4 0 2 4 4 3 3 3 6 4 2 5 7 5 5 2 4 8 5 8 6 6 6 11 16 14 13 13 12 14 16 18 19 20 21 21 21 20 19 20 22 22 22 22 21 22 22 21 20 20 20 20 19 18 16 16 15 16 16 15 16 15 14 12 11 11 10 10 11 10 9 8 9 9 9 11 12 11 10 11 12 10 7 9 10 8 5 7 7 8 9 10 9 9 9 10
6 3 2 3 3 4 2 2 2 2 3 3 4 5 4 2 1 2 8 6 8 7 8 5 7 11 10 10 11 11 11 14 17 19 20 20 20 21 21 19 20 22 23 22 22 21 22 22 22 21 21 20 20 20 19 17 16 16 17 17 17 17 16 15 13 13 14 12 11 11 12 12 10 10 10 10 11 12 12 13 13 13 12 11 12 11 9 7 7 8 9 10 9 8 9 9 9
3 4 5 4 3 3 0 2 3 0 1 1 3 5 4 3 0 3 5 8 10 8 8 6 6 8 9 9 9 12 13 15 19 19 18 18 19 21 22 22 21 20 22 22 22 22 21 22 23 23 22 21 20 20 20 19 17 17 17 17 18 18 17 17 15 14 15 13 12 11 12 14 13 11 11 11 11 12 14 15 14 13 13 13 12 11 10 8 8 9 10 9 8 9 9 9 10
5 6 6 3 3 4 1 3 3 1 1 3 3 4 4 2 1 4 3 8 10 9 8 7 6 6 8 9 9 10 12 16 21 19 18 19 20 21 22 23 22 20 21 22 23 22 21 22 24 24 23 22 21 20 19 19 19 18 17 18 18 17 17 18 17 15 15 14 13 13 14 14 14 14 12 12 12 13 15 15 14 14 14 14 13 12 12 10 10 10 10 10 9 10 9 9 11
6 5 4 4 3 3 3 3 4 1 1 3 2 3 0 2 6 7 5 6 7 9 8 8 7 6 7 7 7 7 10 16 19 19 20 21 21 22 22 24 24 21 21 22 22 23 22 22 23 24 23 23 23 22 20 20 20 19 18 18 18 17 18 19 19 17 16 15 14 15 15 14 14 15 15 15 14 15 16 15 14 14 14 14 13 13 13 13 12 11 12 12 12 11 10 10 12
6 4 3 4 2 3 5 4 4 2 1 2 1 0 4 8 12 9 7 7 6 7 8 8 7 6 7 7 7 6 9 13 16 19 21 22 22 23 23 23 25 24 22 22 22 23 23 22 22 23 24 23 24 23 21 20 20 19 19 19 18 17 18 19 20 19 18 17 16 15 15 14 14 14 15 16 18 18 17 16 15 15 15 14 14 14 14 14 14 13 14 15 14 13 13 12 13
4 4 3 3 2 3 5 5 6 4 1 1 2 2 4 6 10 8 8 8 9 7 8 8 7 7 6 7 7 6 8 12 16 19 21 22 22 23 23 23 24 26 23 23 24 24 24 23 23 24 24 24 24 23 23 21 19 19 20 20 20 19 18 19 20 20 20 19 17 17 16 15 15 16 17 18 20 19 18 18 17 16 16 15 15 15 15 15 15 14 15 15 14 14 14 14 14
4 4 3 4 4 3 2 2 6 4 0 3 2 2 3 1 3 6 6 7 8 8 7 8 8 8 8 6 7 6 7 12 17 19 20 21 22 22 23 23 24 26 25 24 24 24 24 24 25 25 25 25 25 25 24 23 20 19 20 19 19 20 19 19 19 20 21 20 19 20 19 15 15 17 18 19 20 19 19 19 19 17 16 16 17 17 16 16 15 15 15 15 14 13 14 14 14
4 4 3 4 5 3 2 1 3 3 3 4 3 2 2 0 3 4 3 5 6 6 7 9 8 8 8 7 7 7 7 10 13 17 21 22 22 22 23 23 24 26 26 25 24 25 25 25 26 25 25 27 26 26 26 24 22 20 20 19 19 20 20 20 19 20 21 21 21 23 19 15 15 16 17 19 20 20 19 19 18 17 16 17 17 17 17 17 16 16 16 16 16 14 14 14 14
4 4 3 4 7 5 3 1 2 3 3 5 4 3 3 2 5 4 4 6 6 6 7 8 8 7 7 7 7 7 7 8 9 15 21 23 23 23 23 24 24 25 25 25 25 26 27 26 27 27 26 27 26 26 26 25 24 21 19 19 19 19 20 21 20 20 22 23 23 22 20 18 18 19 18 19 22 22 19 18 18 17 17 18 18 18 18 17 16 17 17 17 17 16 16 15 15
3 3 2 3 6 6 5 2 4 7 4 4 6 5 8 5 5 5 6 7 7 7 7 6 7 7 7 7 7 7 8 8 10 17 22 23 24 24 23 23 24 25 25 24 24 26 27 26 26 27 25 26 26 25 24 24 24 22 20 19 18 17 18 19 19 19 19 20 21 21 20 19 19 20 19 19 22 23 20 18 17 17 18 18 18 18 19 18 17 17 18 17 17 17 17 17 16
5 6 5 4 4 4 3 2 3 7 4 5 7 7 10 9 6 6 7 7 8 8 7 6 6 6 6 7 7 7 8 8 11 20 24 24 25 25 24 24 24 26 26 25 24 25 27 26 26 27 26 26 26 25 24 24 24 23 21 20 20 19 19 19 20 19 18 18 19 21 21 21 20 20 21 22 22 23 22 20 18 19 19 19 19 19 20 20 19 18 19 19 18 18 18 18 18
3 7 8 7 5 2 1 3 1 2 3 5 7 6 8 8 7 8 8 8 8 8 8 7 7 6 6 7 7 8 8 7 12 19 23 26 26 26 26 25 25 25 26 26 26 26 27 27 27 28 28 27 27 27 26 26 27 25 24 24 23 22 21 21 21 21 21 21 21 23 25 25 25 24 24 25 24 23 22 21 20 21 21 21 21 21 21 20 19 19 19 19 20 20 20 20 20
4 3 6 6 4 2 2 3 2 1 1 4 7 8 9 8 8 7 8 9 9 9 9 9 9 8 6 7 8 8 7 6 9 13 18 24 25 26 26 26 26 27 27 27 28 28 28 29 29 29 29 29 28 28 29 29 29 28 26 26 25 22 21 21 20 19 20 21 20 21 23 25 27 26 25 26 24 22 23 24 24 23 23 23 23 23 22 21 20 20 20 20 20 20 21 21 21
3 1 3 3 2 3 3 3 2 2 1 2 3 5 8 9 8 7 7 9 9 10 11 10 10 9 8 8 8 8 7 6 8 9 13 20 24 25 26 26 28 29 29 29 29 29 29 29 30 29 29 30 30 29 29 29 28 26 24 23 23 22 20 20 17 14 14 16 18 18 18 20 21 21 20 20 21 21 21 23 24 23 24 25 25 24 23 22 21 21 21 21 19 19 21 21 22
2 1 1 3 3 4 1 1 2 1 1 1 4 2 6 6 6 7 8 10 8 9 12 11 10 10 10 10 9 9 10 9 9 9 10 16 21 23 24 26 27 28 28 29 30 30 30 30 31 30 30 30 31 29 28 27 25 23 21 19 19 21 21 20 19 17 15 14 15 16 16 17 18 19 19 19 21 22 22 23 22 23 23 22 22 23 23 22 22 22 22 22 22 21 22 23 23
3 3 2 2 4 5 2 3 4 3 1 1 3 5 5 6 7 9 9 10 10 9 11 11 10 10 10 10 10 10 11 11 10 10 10 13 18 22 25 26 27 27 28 29 31 31 32 32 31 31 30 30 31 31 28 26 25 24 21 18 17 18 17 18 20 22 21 18 15 15 16 16 16 18 20 20 20 22 23 22 21 21 20 20 20 20 21 21 22 24 24 25 24 24 23 23 22
3 5 5 0 2 6 7 5 5 3 2 2 2 1 6 6 10 11 8 9 11 9 10 12 10 9 8 8 8 8 8 9 9 10 11 13 18 21 24 25 26 27 29 30 31 32 31 31 31 30 30 30 30 31 30 28 27 27 26 24 22 19 17 18 21 22 22 22 19 15 14 14 14 14 16 16 17 19 20 20 21 20 19 20 21 20 21 22 23 25 25 25 25 24 23 22 22
3 5 4 3 5 8 9 6 4 3 2 2 3 4 5 3 5 8 7 8 10 9 9 10 9 8 8 8 8 8 8 7 6 7 9 12 16 19 20 24 27 28 30 29 28 29 29 28 29 30 29 29 29 30 31 30 29 29 29 28 26 22 20 18 18 18 17 18 19 18 16 13 13 13 14 14 16 17 18 18 20 20 20 21 22 22 22 22 23 24 23 23 23 22 21 21 23
3 3 1 5 8 7 8 7 3 2 1 2 1 2 2 4 5 4 5 6 6 6 7 8 8 8 9 9 10 10 9 8 7 7 7 9 14 18 21 25 27 27 27 27 26 27 27 27 28 29 29 29 29 28 30 31 30 30 29 27 25 23 21 17 16 16 15 14 17 19 20 18 17 16 17 16 15 16 17 17 18 19 20 21 21 22 22 21 21 21 21 21 22 22 22 23 25
3 2 1 3 5 6 6 6 3 1 3 1 4 2 1 5 5 2 4 5 5 7 9 10 11 11 10 10 10 10 9 9 8 9 8 9 13 18 20 22 24 23 23 24 26 26 26 25 26 28 28 28 28 28 30 31 29 28 28 26 24 22 20 17 15 15 15 15 15 15 15 17 18 18 18 18 16 16 17 16 17 18 18 18 20 21 21 21 21 21 22 22 23 24 24 23 24
4 3 4 5 4 4 4 4 4 3 1 4 6 5 2 5 5 4 3 3 6 7 8 10 10 11 10 8 8 7 6 6 6 6 7 9 13 15 16 17 19 20 20 22 24 25 25 25 26 28 28 28 29 29 30 31 28 27 27 25 23 22 20 17 15 14 14 14 14 15 15 15 16 17 18 19 19 18 17 16 15 15 16 17 17 18 18 19 19 20 21 22 23 23 23 23 23
6 5 5 6 4 4 3 2 4 3 2 4 5 6 5 3 4 5 4 5 7 7 7 5 4 6 6 5 6 6 5 5 5 4 4 7 9 12 13 14 16 17 18 20 22 24 25 25 27 28 27 27 29 29 30 30 28 27 27 25 24 23 23 21 19 18 17 16 16 16 17 16 17 17 17 17 16 14 14 16 16 16 16 15 15 15 14 14 15 16 17 19 20 20 20 21 22
5 4 5 4 3 4 3 2 3 2 3 3 3 1 2 3 5 3 2 3 5 5 5 3 5 5 5 5 5 5 4 4 5 5 5 6 7 9 11 14 16 17 18 20 21 23 25 26 27 27 26 26 28 28 30 30 28 27 26 24 24 24 24 24 23 21 19 19 18 16 15 15 15 13 12 11 10 10 10 12 13 14 14 13 13 13 13 13 13 14 14 15 16 17 18 19 20
2 4 6 4 1 2 1 1 2 3 3 3 2 3 1 5 6 7 8 6 5 5 5 6 7 6 6 6 5 5 4 3 4 6 6 6 6 8 12 14 16 18 19 20 22 23 24 25 27 27 25 26 27 28 29 30 29 28 25 24 25 24 23 23 22 20 19 18 17 16 15 15 13 12 11 11 11 11 11 9 9 10 11 11 12 11 12 14 13 12 11 11 12 13 15 17 18
3 5 5 5 4 2 3 3 2 3 2 3 3 1 2 4 5 10 14 12 7 4 3 5 7 6 7 7 6 6 6 5 5 5 6 6 7 10 13 15 17 19 19 20 22 24 24 25 27 27 25 25 28 28 28 28 28 27 25 24 25 24 22 21 19 18 17 16 14 14 14 14 13 13 12 12 12 12 12 11 9 9 10 10 11 11 11 11 11 10 10 10 10 11 13 14 15
4 4 5 5 5 3 4 4 3 4 1 2 3 1 3 3 3 7 9 7 4 2 2 3 3 3 5 5 5 5 6 6 5 5 6 6 9 13 15 15 17 19 20 21 22 23 24 25 26 27 26 26 28 28 27 27 27 26 25 23 23 24 22 19 17 15 16 15 14 13 13 14 14 13 12 12 12 13 13 13 13 13 12 12 11 10 10 9 9 9 10 10 11 11 12 12 12
3 2 4 3 4 4 3 2 3 4 2 0 2 2 4 4 5 7 5 4 4 3 3 3 4 4 5 4 5 5 6 6 6 6 6 6 9 14 15 16 17 19 20 21 22 23 24 25 26 26 27 26 27 28 27 26 26 26 26 24 23 23 22 20 18 16 16 17 17 16 15 15 15 14 14 14 14 15 15 14 14 14 14 13 12 10 9 9 9 9 9 10 11 11 11 11 11
2 2 4 3 2 6 4 0 0 3 0 2 3 3 5 3 6 10 8 7 5 4 5 5 6 6 6 6 6 6 6 6 6 6 6 6 9 12 14 16 17 19 21 21 22 23 24 25 26 26 26 25 26 27 27 26 25 25 26 24 23 22 22 21 20 19 18 18 18 17 16 16 16 15 15 15 15 14 14 13 13 12 12 12 12 11 10 9 8 9 9 10 10 10 10 11 11
4 3 5 3 2 3 3 1 1 2 2 2 4 5 4 2 4 5 4 7 6 6 7 7 6 6 7 7 6 7 6 6 6 6 6 7 9 11 13 14 16 18 20 20 21 22 23 24 25 26 26 26 26 26 26 25 25 25 25 25 24 22 21 20 19 19 18 17 16 15 15 15 14 14 15 14 14 13 12 11 11 11 12 12 11 11 10 10 10 9 9 9 10 11 12 14 14
3 3 2 3 1 1 1 2 2 2 3 3 3 6 4 4 4 3 2 7 8 7 7 7 7 7 7 6 6 6 6 6 6 6 6 6 9 11 13 14 15 17 18 20 21 21 22 23 23 26 27 26 26 25 24 24 24 25 25 24 24 22 21 20 19 17 16 15 14 14 14 14 13 13 13 11 10 10 10 10 10 10 10 11 11 11 10 11 11 11 10 10 11 12 13 15 15
1 2 2 2 2 3 3 3 3 3 3 4 3 3 4 5 6 5 7 8 8 7 7 7 8 8 7 6 6 6 6 6 6 6 6 6 9 12 14 14 16 17 18 20 21 22 23 22 21 24 25 24 25 24 24 24 24 24 24 23 23 22 20 19 18 17 15 14 13 13 13 12 11 11 10 8 7 8 8 9 9 9 9 8 9 9 10 10 10 11 11 11 12 13 14 16 17
2 2 4 2 1 2 1 2 2 3 3 3 3 3 5 5 5 9 10 8 7 6 4 5 6 6 7 6 7 6 7 7 6 6 6 6 9 12 14 14 15 16 17 19 21 21 22 22 21 23 24 24 25 24 24 24 24 23 24 23 22 21 19 18 17 16 15 13 13 12 12 11 10 10 8 7 7 8 9 9 9 8 7 7 7 7 7 8 8 8 9 10 12 13 15 16 17
5 5 7 7 5 4 3 3 3 3 2 3 3 4 6 5 2 5 7 6 5 5 5 4 3 3 4 5 7 7 7 7 6 6 6 6 9 12 14 14 15 15 15 17 19 20 21 22 21 22 24 25 25 25 24 24 24 23 22 22 21 20 19 18 17 16 14 13 13 12 12 11 10 9 7 6 7 8 9 8 8 7 6 6 5 5 4 5 6 6 7 8 10 11 13 15 15
Wind_Direction
317 324 321 320 314 316 294 238 278 253 218 268 224 128 79 87 110 109 117 134 101 68 59 66 56 40 34 55 92 82 49 48 33 88 119 148 148 139 126 123 130 134 135 140 139 131 130 124 114 112 104 100 101 100 98 94 92 88 85 78 78 84 91 95 93 91 87 85 83 80 80 78 76 76 74 74 76 70 71 74 75 77 76 75 73 72 71 71 71 72 73 73 75 75 76 78 81
311 315 312 311 294 296 291 199 275 254 205 246 155 91 116 119 125 124 140 130 96 107 93 74 68 84 61 60 103 79 54 57 71 83 111 139 138 128 131 131 131 134 139 140 138 134 132 124 115 114 109 104 101 102 101 97 94 92 89 82 82 86 92 97 96 93 89 87 83 80 81 80 77 76 74 77 82 78 77 78 76 77 77 77 75 73 72 73 73 73 75 75 75 77 78 79 84
308 311 312 303 267 239 291 275 255 271 244 218 90 98 137 133 132 114 102 95 100 120 92 83 89 73 52 94 76 63 83 84 95 95 117 144 141 137 140 133 134 136 137 138 138 138 132 126 120 119 116 109 102 102 103 101 99 97 93 88 86 87 93 97 97 95 90 89 84 82 84 82 80 77 74 76 82 83 84 83 79 77 78 79 77 75 74 75 76 76 76 76 78 78 80 82 88
310 316 314 309 268 210 271 241 224 262 275 209 102 151 148 111 103 92 87 94 108 119 102 125 111 26 12 78 75 81 102 93 112 118 131 154 149 141 142 135 134 134 136 139 141 143 133 128 124 123 123 115 107 102 102 106 107 105 99 91 86 88 94 99 97 95 91 89 86 84 86 84 82 78 75 75 79 82 86 86 83 82 82 80 79 79 77 76 77 78 77 78 79 80 83 87 94
317 318 289 295 296 247 273 258 249 244 293 346 116 163 134 108 103 99 98 99 119 127 134 166 102 57 48 42 48 91 99 103 120 127 134 145 145 143 141 136 134 135 139 140 145 146 134 129 125 126 128 121 112 106 106 107 106 109 105 96 88 87 93 100 98 95 93 90 88 88 88 86 85 82 77 75 78 80 84 85 84 84 82 78 77 78 77 76 77 77 78 79 80 84 86 90 98
319 307 252 253 279 312 293 273 259 230 316 359 113 138 115 111 112 112 107 93 95 90 89 155 110 115 107 49 54 47 46 119 127 127 131 137 144 145 140 137 135 137 140 141 149 147 136 130 127 127 130 126 116 110 108 103 103 109 109 101 91 84 91 100 100 96 94 92 92 92 89 88 88 85 81 79 78 79 80 82 82 81 80 80 78 79 79 78 79 79 80 80 83 87 89 95 100
310 305 209 219 256 253 261 267 259 227 320 359 97 126 108 111 119 117 118 104 55 24 9 336 147 116 115 117 80 41 35 92 127 131 134 139 145 144 140 137 136 139 138 141 150 145 138 133 131 129 131 130 120 116 110 105 102 107 109 102 95 89 91 98 102 101 97 96 96 95 93 91 91 86 84 83 81 80 79 80 80 80 80 82 81 81 81 79 79 80 82 83 87 89 91 100 103
284 292 154 224 233 196 243 263 268 165 327 7 60 102 111 121 130 124 138 140 139 171 159 297 230 89 131 138 99 69 57 85 117 131 137 140 145 144 141 139 138 139 136 143 151 144 140 136 134 131 132 131 127 124 114 110 104 106 108 103 103 102 102 102 100 99 98 101 100 99 97 93 93 89 89 87 82 82 82 82 79 78 79 80 82 83 82 80 80 80 82 86 89 91 94 102 105
230 220 20 267 238 212 224 257 262 126 119 86 66 83 109 130 136 135 153 138 144 163 162 205 287 81 136 94 87 112 84 101 117 129 137 142 148 145 142 143 140 138 140 150 151 145 144 140 138 134 134 133 135 132 121 117 109 109 109 105 108 107 109 106 95 90 95 105 106 104 101 98 98 93 92 90 86 84 84 85 81 79 79 80 82 82 83 83 83 82 82 84 87 90 95 102 104
199 196 264 247 252 230 210 249 255 116 103 93 91 99 109 140 144 144 155 129 145 154 148 163 95 137 132 102 98 121 120 126 125 131 140 145 149 145 145 145 141 139 144 152 152 150 148 143 142 140 138 137 141 139 131 127 118 115 112 108 106 104 108 102 96 90 91 109 113 109 104 101 102 97 92 92 89 84 83 85 85 85 84 84 85 83 84 86 85 84 83 83 84 88 95 100 98
201 194 227 236 249 244 219 227 218 120 108 95 91 100 111 149 150 150 142 127 144 123 123 146 142 195 132 102 92 118 131 139 133 137 144 148 149 147 146 144 143 143 143 147 151 155 152 147 147 146 142 141 144 144 140 135 128 121 116 113 108 106 107 100 101 94 94 115 118 112 110 112 111 103 100 99 95 89 90 94 92 93 92 91 91 87 86 89 89 87 86 85 86 90 94 95 94
225 203 162 225 233 233 233 225 187 114 116 124 120 115 126 151 160 163 136 129 140 118 144 185 146 198 143 97 122 131 138 149 142 142 147 149 149 148 147 143 144 145 144 145 152 158 156 153 151 150 148 144 143 145 145 141 134 125 121 118 113 109 105 103 105 98 100 117 121 123 128 131 124 110 111 114 109 104 102 100 96 95 95 94 92 90 89 90 90 89 88 87 91 95 95 95 95
231 221 173 227 245 246 256 253 120 107 126 158 142 138 156 160 177 167 130 134 144 142 171 180 358 315 117 89 123 138 145 153 145 144 148 149 150 150 148 145 147 149 146 149 156 158 160 159 156 156 154 149 145 145 147 147 139 129 127 121 115 110 104 102 105 103 104 120 131 141 143 139 130 116 120 124 119 117 111 104 102 98 96 97 94 93 93 92 93 91 90 88 96 103 99 97 97
271 275 189 223 252 260 271 308 104 126 163 143 125 139 157 155 190 155 126 147 145 152 137 119 9 13 103 114 141 154 153 152 146 145 149 149 151 151 151 149 151 154 151 154 159 158 162 163 162 162 159 157 152 149 150 152 148 137 131 125 120 112 106 100 104 110 106 121 137 149 147 138 133 121 121 125 121 118 112 111 110 104 99 99 99 98 99 98 98 96 93 93 105 110 105 102 100
318 318 281 237 243 250 262 251 155 163 153 127 132 148 141 72 292 101 97 145 119 81 92 77 7 34 84 153 163 161 152 151 147 147 149 149 151 152 153 153 154 158 159 159 162 162 163 165 169 169 164 164 162 159 158 157 157 146 139 134 127 117 109 100 101 110 107 115 134 150 151 143 138 126 123 126 129 126 115 114 114 114 105 102 107 110 109 106 106 106 103 105 115 117 111 107 104
325 333 313 259 247 247 230 212 167 160 138 134 152 147 129 61 7 71 31 105 106 76 71 76 18 61 45 35 120 139 145 148 145 146 150 151 154 152 149 156 160 159 164 165 166 167 166 169 175 174 167 168 168 166 165 165 165 155 150 146 136 126 115 108 102 108 111 109 128 151 155 150 144 136 135 136 139 136 123 120 110 116 116 109 114 119 119 117 114 116 117 112 114 117 113 113 111
43 3 274 258 241 234 193 190 175 137 127 137 161 154 135 132 53 74 232 134 110 143 84 72 61 73 63 77 116 131 141 144 143 147 152 153 153 151 153 164 166 162 169 172 172 172 172 175 179 176 167 172 172 168 173 170 171 168 163 159 148 140 126 123 111 112 117 111 122 144 156 157 139 128 144 149 152 147 128 122 109 110 123 126 123 127 130 127 128 132 124 111 113 116 114 116 117
135 168 220 243 232 223 229 209 166 128 138 154 166 166 143 143 147 118 171 140 110 141 127 85 71 73 75 102 121 131 141 144 146 151 155 158 154 157 169 173 169 169 175 178 179 178 178 178 184 176 164 176 175 172 182 174 176 179 174 173 165 157 142 142 133 125 124 116 119 125 140 143 117 124 160 153 158 166 158 139 126 112 114 127 118 124 136 139 143 139 125 117 120 117 113 116 122
181 213 212 229 243 244 1 37 96 121 148 157 162 176 161 145 154 142 163 166 137 150 159 129 100 91 89 114 126 134 145 150 154 157 160 167 164 167 177 177 173 175 178 182 184 183 183 180 185 178 167 179 175 175 187 178 178 182 182 186 179 173 160 152 144 132 123 119 117 111 123 129 136 179 207 176 170 167 170 168 146 126 102 112 101 111 137 145 139 130 127 127 120 108 103 99 120
206 223 228 233 246 281 47 57 44 79 136 148 159 179 173 146 146 145 176 174 162 183 177 158 149 144 146 136 136 143 152 158 164 165 167 174 174 174 178 179 180 180 180 184 185 185 187 184 186 183 177 181 176 179 188 180 176 179 187 188 183 185 170 158 148 141 144 131 116 111 151 169 181 207 211 194 203 187 178 184 172 179 154 146 138 132 159 158 138 133 136 132 119 106 112 96 32
203 202 232 263 273 352 60 64 43 51 127 143 150 158 153 136 133 147 178 177 177 201 189 180 178 155 155 157 148 153 160 166 173 174 172 177 182 183 182 183 184 183 181 183 185 187 188 189 187 186 185 184 180 182 187 182 170 176 191 188 182 188 168 163 166 163 174 168 131 136 196 190 196 217 215 203 209 214 196 194 200 209 202 186 157 116 154 164 149 147 146 138 129 116 139 185 277
234 233 239 345 353 26 48 45 27 15 120 128 136 154 138 120 129 166 186 192 181 203 188 184 181 156 154 161 158 160 168 174 181 181 178 181 187 189 185 182 184 184 182 182 185 187 189 191 189 187 187 187 186 184 185 187 171 175 191 189 178 183 172 168 177 177 185 187 151 160 222 201 197 223 219 200 189 224 240 202 197 225 309 142 146 111 142 166 161 158 155 143 137 137 171 198 231
225 249 235 52 37 41 14 23 358 345 121 136 152 151 123 127 156 185 197 189 142 72 43 143 154 152 152 154 157 164 174 181 185 187 184 185 189 191 186 180 182 184 182 183 185 187 189 191 190 189 189 189 189 187 186 191 184 179 192 194 180 183 184 176 184 187 194 199 164 169 232 201 189 224 223 185 173 216 245 234 175 224 263 292 159 203 219 183 176 175 175 161 179 209 201 202 208
217 248 224 74 66 72 13 14 346 349 75 145 152 136 136 165 175 182 198 158 123 97 50 48 97 132 143 147 159 168 177 184 188 191 189 190 192 192 189 181 181 185 185 186 187 189 190 191 191 191 192 191 190 189 190 194 192 186 193 197 185 188 190 184 191 193 199 205 176 176 212 199 187 213 221 190 181 204 218 209 194 211 237 252 200 221 242 208 187 192 201 202 213 219 215 215 212
216 253 73 84 77 89 61 48 5 7 14 21 119 134 139 163 141 165 199 159 127 117 81 72 102 123 139 149 161 168 175 184 187 193 194 195 194 193 194 187 182 186 188 189 189 191 191 191 192 192 192 193 192 191 191 195 194 190 196 197 190 194 193 189 199 197 199 207 192 187 196 201 203 210 219 211 202 203 206 205 204 210 219 218 217 229 244 225 195 199 210 219 226 229 232 235 228
206 215 85 103 93 96 96 87 58 26 346 5 114 137 92 86 84 190 211 169 131 121 99 106 127 133 146 154 164 167 172 183 185 192 196 197 196 195 198 195 189 188 188 189 189 192 193 192 193 193 193 193 194 193 193 195 195 194 201 201 196 200 197 196 205 200 198 204 200 198 198 199 203 214 226 223 214 208 209 213 212 216 220 220 226 234 243 236 209 208 219 228 233 234 240 247 242
175 149 88 91 95 95 2 83 102 73 9 275 185 141 79 43 275 234 209 156 134 124 118 134 149 153 159 158 168 171 174 183 185 188 192 197 199 197 198 198 196 191 187 189 191 192 193 193 194 194 194 194 194 196 196 196 197 196 203 207 202 205 204 201 205 203 202 207 207 206 207 203 197 208 228 230 222 214 215 221 220 221 225 228 234 237 240 237 219 219 229 232 230 231 238 245 244
123 128 99 97 108 102 113 105 125 249 111 220 234 103 83 61 230 241 176 144 146 140 140 155 163 168 168 163 166 172 179 183 184 186 188 195 200 198 198 198 197 192 188 191 192 193 193 194 195 194 195 196 196 198 197 197 200 199 201 208 209 208 208 204 206 209 211 220 224 214 214 215 202 200 218 231 228 221 223 229 228 227 230 235 241 240 240 237 222 221 231 230 226 232 238 240 244
140 153 132 140 149 130 171 135 131 202 131 225 269 55 121 189 223 226 151 139 151 151 159 167 174 174 169 168 164 171 181 179 180 187 192 194 198 198 199 198 197 194 192 193 193 194 194 194 194 194 196 198 199 199 199 199 201 203 201 207 215 212 209 209 210 210 215 228 229 214 220 229 215 202 211 226 232 229 230 235 235 233 235 240 244 243 240 239 229 221 228 232 227 228 230 232 245
158 194 180 144 171 186 175 134 119 144 317 312 26 178 227 213 220 208 151 154 151 165 180 170 182 183 172 171 163 175 184 178 180 189 194 194 196 198 199 199 198 198 196 195 195 195 195 194 194 194 197 202 203 200 202 204 205 208 206 207 216 218 214 214 215 214 217 227 223 213 228 234 218 211 213 219 229 232 231 237 241 239 239 239 243 243 240 242 238 230 233 240 237 235 235 234 245
171 197 216 162 163 184 159 140 146 155 296 329 91 224 248 225 208 175 150 163 157 180 194 174 181 184 182 175 166 180 187 186 186 190 195 195 197 198 199 199 198 199 198 196 197 196 195 196 196 195 196 201 204 202 203 207 207 210 212 209 212 220 223 221 222 221 219 225 222 217 230 230 217 221 223 221 227 232 231 237 243 242 240 238 240 243 243 245 243 239 240 246 250 248 246 244 248
208 185 205 189 168 162 142 156 164 153 238 190 159 231 264 316 149 136 145 166 166 186 194 184 185 179 182 179 175 183 185 190 191 192 196 196 197 197 198 198 197 197 197 196 197 195 195 195 196 196 196 199 202 203 202 204 205 207 213 212 210 217 225 224 222 223 223 223 219 220 227 227 222 226 228 226 231 236 233 237 244 244 241 241 241 243 245 246 244 241 242 247 253 252 252 252 250
231 195 177 186 181 167 156 245 198 142 124 182 231 252 234 227 144 136 154 176 184 199 196 188 189 185 181 175 180 187 182 186 191 195 196 197 198 198 198 197 196 197 197 197 196 193 193 194 196 196 197 198 200 204 203 203 204 205 212 216 212 212 218 221 220 222 224 222 221 224 225 227 234 239 237 229 231 239 237 237 243 245 245 244 244 244 246 247 244 243 242 244 249 249 249 252 250
225 202 188 196 185 169 154 190 209 168 165 195 208 240 260 217 160 167 193 189 191 213 213 193 185 186 184 174 178 186 187 187 192 196 196 196 198 199 199 198 197 197 197 197 197 195 193 195 197 196 198 197 199 204 205 204 204 204 211 215 212 213 217 222 225 227 227 228 228 224 219 226 241 251 248 233 230 237 239 238 241 244 246 245 245 247 250 251 248 246 246 245 248 248 246 249 250
181 181 215 218 187 183 171 161 176 169 194 216 181 221 259 239 168 185 207 192 188 211 224 211 192 185 185 181 181 187 191 195 195 195 197 197 196 197 198 198 197 196 196 196 196 197 194 195 198 197 198 198 197 201 203 204 202 204 211 210 209 214 218 221 226 228 225 227 226 219 219 232 247 254 250 237 231 233 235 236 239 241 243 245 245 246 249 252 249 246 246 245 247 249 247 246 248
186 182 201 222 180 186 165 120 164 159 171 218 191 211 241 236 211 196 200 197 192 204 219 224 210 199 195 189 190 193 195 205 197 194 199 199 196 196 195 196 196 195 196 195 195 196 194 195 198 197 198 198 196 196 200 202 200 205 210 209 210 212 215 220 225 225 221 219 221 223 228 238 248 251 248 242 236 234 234 234 237 239 242 245 246 248 250 253 253 249 248 247 246 247 247 245 245
227 184 190 215 182 163 67 95 151 165 157 215 218 229 240 239 232 202 184 191 199 198 203 213 211 208 207 199 200 199 202 209 195 193 199 198 197 197 195 195 193 192 194 194 194 195 194 194 197 199 198 196 195 193 196 199 199 201 205 206 210 212 215 222 226 226 224 225 230 234 236 239 241 242 245 244 243 242 240 237 239 240 241 246 250 254 255 255 256 255 252 250 246 246 248 248 247
320 183 170 205 187 138 29 83 162 183 129 216 221 235 247 243 243 223 174 176 202 200 193 200 205 207 209 206 208 208 208 202 186 187 189 189 192 194 195 195 192 192 193 194 195 197 197 196 198 201 198 196 196 195 195 198 200 202 204 206 208 210 214 219 224 228 231 233 235 238 239 239 237 238 244 246 247 249 247 241 242 243 246 251 254 256 256 255 255 254 251 248 246 247 249 250 251
318 343 136 184 179 119 55 48 133 142 129 254 218 225 251 250 246 242 196 189 202 196 194 198 199 203 207 204 206 209 208 197 185 182 176 177 183 189 193 195 196 197 197 197 198 198 198 198 200 201 200 198 198 197 199 200 202 203 204 206 207 208 212 215 217 221 227 230 232 235 240 241 237 235 239 244 248 250 247 243 245 249 252 255 256 259 260 257 254 251 248 248 250 251 252 252 255
241 262 149 180 167 144 168 218 143 105 151 30 5 306 267 266 263 252 228 222 215 195 200 202 196 202 204 201 201 200 199 197 193 188 179 177 180 185 190 193 196 199 199 199 199 199 199 200 201 201 201 201 199 198 199 199 199 198 200 205 209 212 216 218 217 217 217 217 223 234 240 242 238 234 237 245 250 251 248 247 249 252 257 262 263 262 262 262 261 258 256 256 255 253 253 255 257
235 224 232 216 172 151 120 150 135 20 13 89 7 323 281 236 233 244 231 226 225 208 204 208 208 206 201 203 205 199 196 193 191 192 186 183 186 190 193 195 196 198 199 199 200 200 201 201 201 200 200 201 201 198 197 196 195 193 193 194 194 201 206 209 211 215 217 215 218 232 240 240 238 238 241 246 250 252 252 254 255 255 259 265 265 264 269 273 271 267 264 262 257 253 254 258 259
247 221 210 247 126 128 111 130 130 59 308 236 130 302 284 226 211 230 220 211 220 209 203 211 214 205 197 206 212 208 204 196 189 190 188 186 191 194 196 198 199 201 202 202 203 203 202 202 201 200 199 200 201 200 197 195 194 190 190 188 186 187 189 194 201 208 216 219 220 227 235 240 243 243 242 243 249 255 258 260 260 260 263 266 266 267 272 273 270 267 265 262 259 259 258 257 259
231 241 209 124 95 115 126 148 144 126 228 281 124 176 268 279 242 239 205 194 214 207 206 216 213 207 205 211 216 212 209 204 192 184 181 183 186 187 192 198 201 205 206 204 204 204 202 202 201 199 198 199 200 199 197 196 194 193 193 195 195 195 195 198 205 211 217 221 220 220 222 227 238 245 246 247 251 254 256 257 256 257 261 263 261 260 261 265 269 270 270 267 266 268 263 256 258
212 283 295 131 125 132 143 154 164 162 143 359 343 185 269 292 282 260 151 163 213 216 221 231 225 218 216 215 217 215 210 204 196 194 191 184 182 184 191 198 203 207 207 203 202 202 201 201 200 198 197 197 198 197 196 196 196 195 196 199 200 202 204 202 205 209 212 215 217 221 225 228 233 242 248 250 249 249 250 251 249 251 254 256 257 259 263 269 274 275 276 276 272 268 262 258 260
220 249 4 113 134 142 147 148 154 94 74 306 251 191 276 268 253 225 134 156 219 226 221 227 226 219 218 216 211 208 206 196 188 195 202 200 193 191 193 197 202 205 206 203 202 200 198 197 195 193 194 194 195 195 194 194 195 195 195 197 196 199 204 201 200 205 207 208 211 217 223 226 229 234 239 241 242 244 248 252 252 252 254 257 261 266 271 272 272 272 271 269 266 261 258 258 259
203 174 78 58 71 96 124 140 125 87 77 237 224 185 203 276 252 209 181 196 223 229 224 225 220 211 207 202 190 179 175 173 171 176 188 198 201 199 197 197 199 202 204 203 200 197 193 192 190 189 190 192 192 193 192 191 193 194 194 195 192 192 195 193 191 195 198 198 201 208 213 217 223 228 232 236 239 241 243 248 251 254 258 260 263 266 269 269 268 267 265 263 262 261 260 260 262
141 129 84 63 49 54 61 104 103 97 248 236 219 190 185 271 260 197 187 215 214 219 233 229 188 171 168 154 146 149 150 154 159 163 160 163 177 186 185 185 187 190 194 195 194 194 192 191 189 187 189 190 191 192 191 190 190 193 195 195 191 187 188 188 188 190 193 194 197 206 213 219 225 231 235 237 241 242 241 243 245 251 255 257 258 261 264 267 268 268 267 265 264 264 266 266 266
114 119 112 87 37 41 30 13 94 156 244 248 291 307 168 228 252 222 219 229 206 207 222 199 151 142 135 129 132 137 141 148 157 169 166 145 148 169 172 169 173 177 181 186 188 189 189 188 186 184 185 188 189 190 191 189 189 192 194 192 189 187 187 189 190 190 193 195 198 204 212 218 224 232 235 234 236 242 247 248 245 246 250 253 256 258 260 263 266 268 269 267 268 270 271 270 268
98 137 131 120 94 80 102 246 175 208 244 247 299 353 248 232 248 261 268 257 220 211 204 171 159 157 152 155 156 151 150 162 173 174 172 166 162 178 180 172 172 175 178 181 184 184 184 183 182 180 181 185 186 187 189 189 188 188 189 189 187 188 191 191 192 193 194 196 197 202 206 210 217 223 225 226 230 235 244 251 253 254 257 257 259 262 267 269 267 267 270 272 272 273 274 273 271
183 160 143 147 149 133 191 199 194 218 260 286 283 310 265 269 259 245 250 249 233 209 190 153 145 159 166 163 161 162 170 183 197 183 170 177 180 186 189 179 175 179 179 179 180 181 181 180 180 179 179 183 184 184 184 186 186 184 186 189 186 186 191 194 193 192 192 198 203 205 203 204 212 219 222 226 228 229 233 238 244 253 257 257 259 263 268 269 269 272 275 276 276 276 279 280 278
191 169 140 161 171 161 184 181 186 199 207 320 302 258 192 208 248 238 236 240 221 156 155 135 130 161 153 146 156 174 190 190 190 186 179 186 183 183 186 180 177 180 179 179 178 178 179 178 179 179 177 180 183 183 182 183 182 180 183 188 185 185 190 194 194 189 187 196 203 204 201 201 207 212 216 221 221 222 228 231 232 235 238 244 252 261 267 268 270 274 276 280 283 285 287 285 283
220 155 118 178 196 147 138 167 174 155 104 280 240 246 212 205 271 274 244 208 200 215 220 193 214 211 168 177 199 200 209 195 178 184 188 184 176 176 179 176 178 178 176 177 177 178 178 177 179 179 178 180 183 183 182 181 181 179 181 184 184 185 189 191 193 191 190 196 200 202 204 205 208 211 214 219 223 226 231 234 235 233 232 234 239 245 255 266 273 276 276 279 283 289 290 284 279
181 131 157 202 168 116 114 232 76 101 141 229 185 252 279 282 290 277 247 226 217 225 243 238 235 221 195 208 214 205 206 186 172 182 179 167 163 168 174 173 174 174 174 176 177 178 178 177 178 178 177 180 182 182 182 180 180 180 180 182 182 185 189 192 193 194 195 199 202 206 210 212 215 217 219 223 227 232 235 238 241 237 230 228 229 232 237 249 265 275 281 284 288 292 288 280 276
118 149 191 177 72 79 116 178 18 79 225 242 176 214 260 247 271 290 245 231 231 218 227 240 237 224 215 220 218 208 196 172 170 174 164 162 161 162 167 169 171 172 173 176 177 178 178 178 180 179 178 180 181 180 181 180 181 181 180 180 182 187 191 192 193 197 200 203 206 211 215 217 218 220 223 227 231 236 240 244 243 237 230 225 222 224 228 234 241 253 266 276 283 285 282 280 280
124 164 173 112 134 233 134 177 191 161 217 268 224 218 231 201 222 296 238 225 238 225 211 216 222 219 219 223 217 200 172 158 171 169 159 161 162 159 158 159 165 170 172 174 174 176 176 177 181 182 181 181 179 178 179 180 182 183 181 181 184 189 192 192 194 199 204 207 210 214 215 215 218 221 225 230 235 241 244 244 240 234 231 228 225 224 229 235 238 243 253 263 271 277 279 282 285
52 93 77 74 166 179 165 192 192 156 196 258 251 228 243 222 210 225 225 219 224 223 208 208 218 217 216 211 200 187 170 172 183 175 166 159 155 158 158 158 160 164 169 171 170 171 172 173 178 180 180 178 177 178 179 180 183 184 182 183 187 191 193 194 197 202 207 210 212 212 210 212 217 220 225 233 241 247 245 239 233 229 228 231 235 235 236 241 244 248 254 261 267 272 277 283 289
152 124 141 158 163 124 130 239 195 143 170 231 245 250 258 248 210 206 220 222 210 196 171 191 213 214 215 204 186 183 180 184 188 173 164 154 146 149 154 160 162 162 167 170 170 170 170 171 174 177 178 178 178 180 181 182 184 185 185 185 188 192 193 196 199 203 207 210 210 209 208 210 213 217 224 237 246 247 243 234 227 226 228 236 248 251 249 250 253 257 262 267 272 276 281 287 291
174 174 176 180 172 137 141 236 208 159 175 196 209 255 263 256 220 193 209 207 186 163 144 174 216 208 202 195 184 187 185 185 185 168 157 149 142 144 151 160 166 167 167 170 173 173 172 172 174 177 180 181 181 182 184 186 186 185 187 188 189 192 194 197 199 201 205 207 206 206 208 210 212 218 228 238 242 241 240 235 230 230 229 233 248 257 264 271 272 273 274 277 283 286 289 294 296